Weather in Paide

Estonia     58˚53′13″N   25˚34′11″E
temp.,
°C
wind,
m/s
gust,
m/s
humid.,
%
clouds,
%
prec.,
mm/h
press.,
hPa
HPBL,
m
28 november, sat
sat2823:00+2˚ne4109598 0.1 1018728
02:00+2˚nne488491 0.1 1020787
05:00+1˚nne4882100 0.0 1021677
08:00+1˚nne4993100 0.1 1023705
11:00+2˚ne4887100 0.1 1024773
14:00+2˚ene388293 0.1 1025815
17:00+1˚ene377993 0.0 1026735
20:00+1˚ene367996 0.1 1027684
29 november, sun
sun2923:00+1˚ene3684100 0.0 1028602
02:00ene3686100 0.1 1028547
05:00−1˚ene379297 0.1 1028426
08:00−2˚ene269384 0.1 1028263
11:00−1˚ene368846 0.0 1028294
14:00−1˚ene358648 0.0 1027427
17:00−2˚ene368699 0.0 1026567
20:00−1˚ene377999 0.0 1025632
30 november, mon
mon3023:00−2˚ene269170 0.0 1023323
02:00−2˚ne249471 0.1 1022233
05:00−1˚ne139699 0.5 1020166
08:00−1˚ese119897 1.1 102054
11:00s239299 0.3 1020269
14:00+1˚s258098 0.3 1019547
17:00−1˚s249899 0.4 1018239
20:00−2˚s389599 0.4 1018386
1 december, tue
tue123:00−2˚s499299 0.2 1017468
02:00−2˚s499099 0.4 1017449
05:00−1˚s4109599 0.5 1016499
08:00−1˚s5119599 0.8 1017518
11:00+1˚s51097100 1.5 1018480
14:00+4˚ssw51295100 2.3 1019720
17:00+2˚ssw51290100 0.1 1020711
20:00+2˚ssw51295100 0.3 1023608
2 december, wed
wed223:00+2˚ssw51192100 0.0 1025565
02:00s51097100 0.3 1026506
05:00−1˚s4993100 0.2 1026484
08:00−1˚s3892100 0.2 1027421
11:00−1˚s378997 0.1 1028418
14:00−1˚s378896 0.1 1028442
17:00−2˚sse389355 0.0 1028326
20:00−3˚sse389156 0.0 1028360